TheGetRank SiteMap Page 5132
Home 5082 5083 5084 5085 5086 5087 5088 5089 5090 5091 5092 5093 5094 5095 5096 5097 5098 5099 5100 5101 5102 5103 5104 5105 5106 5107 5108 5109 5110 5111 5112 5113 5114 5115 5116 5117 5118 5119 5120 5121 5122 5123 5124 5125 5126 5127 5128 5129 5130 5131 5132 5133 5134 5135 5136 5137 5138 5139 5140 5141 5142 5143 5144 5145 5146 5147 5148 5149 5150 5151 5152 5153 5154 5155 5156 5157 5158 5159 5160 5161 5162 5163 5164 5165 5166 5167 5168 5169 5170 5171 5172 5173 5174 5175 5176 5177 5178 5179 5180 5181 5182
S.NO. Website Pagerank Alexa Rank Last Updated
5131000 streamhouse.net 0 No Rank 2011-12-16 23:08:56
5131001 earmuffshop.com 0 5764894 2011-12-16 23:08:57
5131002 waynessmallengineservice.ca 0 No Rank 2011-12-16 23:09:02
5131003 sushi-studio.ru 0 7833617 2011-12-16 23:09:02
5131004 wayou-s.com 0 No Rank 2011-12-16 23:09:02
5131005 scootersinc.com 0 No Rank 2011-12-16 23:09:05
5131006 robertsradio.ch 0 No Rank 2011-12-16 23:09:06
5131007 smokerscalc.com 0 No Rank 2011-12-16 23:09:06
5131008 wawel-cup2011.zelazko-jura.pl 0 No Rank 2011-12-16 23:09:10
5131009 cosmeticare.net 0 No Rank 2011-12-16 23:09:11
5131010 blueflag.org.nz 0 No Rank 2011-12-16 23:09:11
5131011 wavcomm.com 0 No Rank 2011-12-16 23:09:18
5131012 waverleygreens.com 0 1282 2011-12-16 23:09:20
5131013 trailztemple.com 0 No Rank 2011-12-16 23:09:25
5131014 mediaembassy.org 0 3029537 2011-12-16 23:09:29
5131015 crossstitcher.ru 0 2958165 2011-12-16 23:09:29
5131016 watsonchris.com 0 No Rank 2011-12-16 23:09:33
5131017 bcoach.org 0 No Rank 2011-12-16 23:09:33
5131018 thefrenchguy.com 0 No Rank 2011-12-16 23:09:33
5131019 wattsaver.com 0 No Rank 2011-12-16 23:09:34
5131020 watson-logistics.com 0 No Rank 2011-12-16 23:09:38
5131021 woodenmanger.com 0 6408073 2011-12-16 23:09:38
5131022 watchfreemovieonlineforfree.com 0 No Rank 2011-12-16 23:09:38
5131023 infantssleep.com 0 No Rank 2011-12-16 23:09:38
5131024 watkins-farm.com 0 No Rank 2011-12-16 23:09:41
5131025 waterwellonline.com 0 No Rank 2011-12-16 23:09:41
5131026 fremd-gehen.info 0 5383844 2011-12-16 23:09:43
5131027 jsmbjy.com 0 No Rank 2011-12-16 23:09:45
5131028 cooler.mpora.com 0 16282 2011-12-16 23:09:45
5131029 waterrightexchange.com 0 No Rank 2011-12-16 23:09:45
5131030 themoviesoup.com 0 No Rank 2011-12-16 23:09:46
5131031 windel-sex.de.sr 0 No Rank 2011-12-16 23:09:48
5131032 factorymedia.com 0 No Rank 2011-12-16 23:09:51
5131033 streamhousenv.net 0 No Rank 2011-12-16 23:09:52
5131034 watchmykidspc.com 0 No Rank 2011-12-16 23:09:52
5131035 waterfordpg.com 0 No Rank 2011-12-16 23:09:54
5131036 magnificmedia.com 0 No Rank 2011-12-16 23:09:55
5131037 saladinositalianmarket.com 0 21647926 2011-12-16 23:09:55
5131038 cigarettes-ny.com 0 4963407 2011-12-16 23:09:56
5131039 infantsandal.com 0 No Rank 2011-12-16 23:09:56
5131040 watchmeninternational.com 0 No Rank 2011-12-16 23:09:56
5131041 sex-amateur.de.sr 0 No Rank 2011-12-16 23:09:58
5131042 holywholesale.com 0 3941799 2011-12-16 23:09:59
5131043 popstudios.com.sv 0 14640040 2011-12-16 23:10:00
5131044 washingtondclaserteethwhitening.net 0 No Rank 2011-12-16 23:10:04
5131045 dachi7.blogspot.com 0 No Rank 2011-12-16 23:10:05
5131046 arthousecinema.ru 0 No Rank 2011-12-16 23:10:05
5131047 arkhangelsk.povodok.info 0 No Rank 2011-12-16 23:10:09
5131048 votersforpeace.us 0 10422905 2011-12-16 23:10:09
5131049 digiradio-shop.ch 0 10661620 2011-12-16 23:10:10
5131050 weightlosstips.tv 0 11787128 2011-12-16 23:10:11
5131051 washingtoncourtreporters.org 0 No Rank 2011-12-16 23:10:12
5131052 sysadmindiary.com 0 19700995 2011-12-16 23:10:12
5131053 wasedamarketing.com 0 3685988 2011-12-16 23:10:12
5131054 dabrowadom.pl 0 10609557 2011-12-16 23:10:13
5131055 wartechnic.ru 0 2594685 2011-12-16 23:10:16
5131056 cheap-tobacco.com 0 No Rank 2011-12-16 23:10:16
5131057 sunbird-tours.com 0 No Rank 2011-12-16 23:10:19
5131058 onboard.mpora.com 0 16282 2011-12-16 23:10:19
5131059 warnermusic.hu 0 5364593 2011-12-16 23:10:20
5131060 thebestbits.ocsmvp.com 0 2112547 2011-12-16 23:10:22
5131061 warezrd.net 0 2019516 2011-12-16 23:10:24
5131062 xn----miceskz.net 0 1431327 2011-12-16 23:10:24
5131063 streamhousenv.org 0 No Rank 2011-12-16 23:10:24
5131064 thetemplehost.com 0 10019593 2011-12-16 23:10:26
5131065 warmspringsgallery.com 0 No Rank 2011-12-16 23:10:26
5131066 warcousa.com 0 22959257 2011-12-16 23:10:27
5131067 streamhousenv.com 0 No Rank 2011-12-16 23:10:28
5131068 blog.lookstat.com 0 482637 2011-12-16 23:10:28
5131069 digicelfutbol.com 0 16635381 2011-12-16 23:10:30
5131070 skate.dcshoes.com 0 42049 2011-12-16 23:10:30
5131071 shepherdplaza.com 0 No Rank 2011-12-16 23:10:33
5131072 kingpin.mpora.com 0 16282 2011-12-16 23:10:37
5131073 waltripbrothers.com 0 23187006 2011-12-16 23:10:38
5131074 wallacejnichols.org 0 15562224 2011-12-16 23:10:40
5131075 walkingclover.com 0 No Rank 2011-12-16 23:10:42
5131076 walhallaresort.com 0 18390602 2011-12-16 23:10:45
5131077 bethlehemgifts.net 0 4325925 2011-12-16 23:10:45
5131078 shawcomm.com 0 21785478 2011-12-16 23:10:47
5131079 waldwerk.org 0 24264146 2011-12-16 23:10:48
5131080 pendantcrosses.com 0 10462586 2011-12-16 23:10:52
5131081 mynameregister.com 0 No Rank 2011-12-16 23:10:53
5131082 kingsforthhall.com 0 No Rank 2011-12-16 23:10:54
5131083 wakingdragonink.com 0 No Rank 2011-12-16 23:10:55
5131084 pharmadropship.com 0 1524312 2011-12-16 23:10:55
5131085 anale-grande.de.sr 0 No Rank 2011-12-16 23:10:56
5131086 android-mobiles.ru 0 285414 2011-12-16 23:10:56
5131087 themutantpanda.com 0 No Rank 2011-12-16 23:10:58
5131088 wagnerprofessionalgroup.com 0 8600881 2011-12-16 23:11:00
5131089 scheidungsforum.ch 0 7052312 2011-12-16 23:11:00
5131090 crossesforwall.com 0 No Rank 2011-12-16 23:11:02
5131091 wadeonbirmingham.com 0 6782454 2011-12-16 23:11:02
5131092 thesoulsonline.com 0 4784044 2011-12-16 23:11:04
5131093 crossesforsale.com 0 18138288 2011-12-16 23:11:05
5131094 designbyadmiral.com 0 No Rank 2011-12-16 23:11:07
5131095 tailored-shirts.com 0 No Rank 2011-12-16 23:11:09
5131096 wacmeinvitational.com 0 No Rank 2011-12-16 23:11:10
5131097 wachoviafastshortsale.com 0 No Rank 2011-12-16 23:11:10
5131098 skiunion.mpora.com 0 No Rank 2011-12-16 23:11:10
5131099 cigarette-cheap.org 0 18731483 2011-12-16 23:11:10
5131100 vyuka.cz 0 257682 2011-12-16 23:11:17
5131101 shepherds-house.com 0 No Rank 2011-12-16 23:11:18
5131102 avondale01.info 0 No Rank 2011-12-16 23:11:18
5131103 halloweenfancydressuk.com 0 5741506 2011-12-16 23:11:20
5131104 accentinnovation.ch 0 No Rank 2011-12-16 23:11:20
5131105 shopping.kensfoods.com 0 1868211 2011-12-16 23:11:23
5131106 vulkanizer-lesanovic.rs 0 3015161 2011-12-16 23:11:24
5131107 vudesk.com 0 No Rank 2011-12-16 23:11:25
5131108 breadforthecity.org 0 3085784 2011-12-16 23:11:26
5131109 thebicyclebuyer.com 0 4278701 2011-12-16 23:11:26
5131110 alamandi.gametlt.ru 0 453055 2011-12-16 23:11:27
5131111 live.quiksilver.com 0 29845 2011-12-16 23:11:28
5131112 billig-fluege.de.sr 0 No Rank 2011-12-16 23:11:30
5131113 districtcommons.com 0 24578082 2011-12-16 23:11:31
5131114 vtinfotech.org 0 13233969 2011-12-16 23:11:31
5131115 vtpanhellenic.org 0 6164218 2011-12-16 23:11:31
5131116 crossesnecklaces.com 0 7249345 2011-12-16 23:11:33
5131117 nuvi2360lmt435.wordpress.com 0 No Rank 2011-12-16 23:11:33
5131118 vtiassociates.com 0 22768168 2011-12-16 23:11:34
5131119 yoursiteregister.com 0 No Rank 2011-12-16 23:11:36
5131120 facebook.dcshoes.com 0 42049 2011-12-16 23:11:36
5131121 vtecs.org 0 No Rank 2011-12-16 23:11:38
5131122 discovermagnolia.com 0 5122682 2011-12-16 23:11:38
5131123 vssalumni.com 0 No Rank 2011-12-16 23:11:39
5131124 quizzes.blogquiz.net 0 4971281 2011-12-16 23:11:39
5131125 surfeurope.mpora.com 0 16282 2011-12-16 23:11:39
5131126 wholesalemidwest.com 0 7015175 2011-12-16 23:11:40
5131127 vsocc.org 0 20368338 2011-12-16 23:11:43
5131128 surfersboardguide.com 0 11371723 2011-12-16 23:11:43
5131129 dcc.digicelfutbol.com 0 16635381 2011-12-16 23:11:45
5131130 vratrips.org 0 No Rank 2011-12-16 23:11:46
5131131 urlaub-extravagant.de 0 1155031 2011-12-16 23:11:46
5131132 skyanalog.net 0 24570513 2011-12-16 23:11:47
5131133 cigarettes-france.com 0 No Rank 2011-12-16 23:11:47
5131134 holylandolivewood.com 0 4585755 2011-12-16 23:11:48
5131135 infanttoddlershoe.com 0 No Rank 2011-12-16 23:11:51
5131136 surferspath.mpora.com 0 16282 2011-12-16 23:11:51
5131137 nativitiesforsale.com 0 4928976 2011-12-16 23:11:51
5131138 free-recipes-site.com 0 No Rank 2011-12-16 23:11:52
5131139 synonyms.memodata.com 0 554585 2011-12-16 23:11:53
5131140 shepherdbethlehem.com 0 No Rank 2011-12-16 23:11:53
5131141 babyformulaorganic.com 0 No Rank 2011-12-16 23:11:56
5131142 votrechiro.com 0 2053931 2011-12-16 23:11:57
5131143 crucifixesnecklace.com 0 20778449 2011-12-16 23:11:58
5131144 makinghawaiismile.com 0 No Rank 2011-12-16 23:11:58
5131145 anagramme.memodata.com 0 554585 2011-12-16 23:11:58
5131146 woodennativitysets.net 0 4418004 2011-12-16 23:12:00
5131147 wc.digicelfootball.com 0 13288154 2011-12-16 23:12:03
5131148 cwc.digicelcricket.com 0 8994151 2011-12-16 23:12:03
5131149 vonomedicalsupplies.com 0 6703276 2011-12-16 23:12:07
5131150 site.proofpronto.com 0 574212 2011-12-16 23:12:07
5131151 synonymes.memodata.com 0 554585 2011-12-16 23:12:07
5131152 suppancontemporary.com 0 18889559 2011-12-16 23:12:08
5131153 voresstoredag.dk 0 5567141 2011-12-16 23:12:08
5131154 7080dy.com 0 7797540 2011-12-16 23:12:11
5131155 dictionary.memodata.com 0 554585 2011-12-16 23:12:12
5131156 volvospeedometer.com 0 No Rank 2011-12-16 23:12:12
5131157 vom-rodder-eschgrund.de.vu 0 No Rank 2011-12-16 23:12:13
5131158 writing.international-leisure.info 0 No Rank 2011-12-16 23:12:13
5131159 slpfriendsofthearts.org 0 No Rank 2011-12-16 23:12:14
5131160 dcc.digicelfootball.com 0 13288154 2011-12-16 23:12:15
5131161 volusiacountyschools.net 0 21849887 2011-12-16 23:12:17
5131162 developer.quiksilver.com 0 29845 2011-12-16 23:12:19
5131163 implantsurgerycenter.com 0 No Rank 2011-12-16 23:12:20
5131164 translation.memodata.com 0 554585 2011-12-16 23:12:21
5131165 volte.jp 0 No Rank 2011-12-16 23:12:21
5131166 wholesale-cigarettes.com 0 5138991 2011-12-16 23:12:23
5131167 smokecigaretteonline.com 0 No Rank 2011-12-16 23:12:27
5131168 fivestarhomemortgages.com 0 7253331 2011-12-16 23:12:27
5131169 dictionnaire.memodata.com 0 554585 2011-12-16 23:12:28
5131170 freshaircleanpolitics.net 0 19254547 2011-12-16 23:12:28
5131171 volkovasisters.com 0 13411907 2011-12-16 23:12:28
5131172 volarpilates.com 0 No Rank 2011-12-16 23:12:30
5131173 iphone.dailyhoroscopes.biz 0 2263573 2011-12-16 23:12:33
5131174 voilassp.com 0 5552402 2011-12-16 23:12:34
5131175 voice-casting.net 0 27236386 2011-12-16 23:12:37
5131176 vogelsong-hoeke.net 0 No Rank 2011-12-16 23:12:38
5131177 espressocoffeemachines.net 0 No Rank 2011-12-16 23:12:38
5131178 lesbische-geschichten.de.sr 0 No Rank 2011-12-16 23:12:41
5131179 upstartproductdevelopment.com 0 No Rank 2011-12-16 23:12:41
5131180 shermanoaksdentalimplants.com 0 No Rank 2011-12-16 23:12:43
5131181 centraljerseylegalservices.com 0 No Rank 2011-12-16 23:12:45
5131182 cypherboardshorts.quiksilver.com 0 29845 2011-12-16 23:12:46
5131183 skoda-superb.avtosklad.net 0 1791254 2011-12-16 23:12:46
5131184 vleescenter.eu 0 No Rank 2011-12-16 23:12:48
5131185 african-safari-and-travel-advisor.com 0 2055402 2011-12-16 23:12:49
5131186 taxfreenativediscountcigarettes.com 0 No Rank 2011-12-16 23:12:50
5131187 lifeinsuranceagency-training-management-sales.com 0 No Rank 2011-12-16 23:12:50
5131188 vnbhattacharya.com 0 No Rank 2011-12-16 23:12:51
5131189 hk65.net 0 No Rank 2011-12-16 23:12:54
5131190 yadis.net 0 No Rank 2011-12-16 23:12:55
5131191 kfpcyg.org 0 No Rank 2011-12-16 23:12:56
5131192 beluga8.org 0 No Rank 2011-12-16 23:12:56
5131193 rodford.org 0 No Rank 2011-12-16 23:12:58
5131194 venturacommenter.org 0 No Rank 2011-12-16 23:12:58
5131195 deskpaid.com 0 No Rank 2011-12-16 23:13:00
5131196 sgrocks.com 0 No Rank 2011-12-16 23:13:02
5131197 wealthqq.com 0 No Rank 2011-12-16 23:13:03
5131198 mccomb.co.uk 0 11855562 2011-12-16 23:13:04
5131199 fineolive.com 0 No Rank 2011-12-16 23:13:06
5131200 velo-tours.net 0 3038778 2011-12-16 23:13:08
5131201 vivideffects.com 0 18792445 2011-12-16 23:13:08
5131202 blissofus.com 0 No Rank 2011-12-16 23:13:09
5131203 charletts.com 0 12281631 2011-12-16 23:13:10
5131204 velfile.com 0 No Rank 2011-12-16 23:13:10
5131205 buzzpenny.com 0 No Rank 2011-12-16 23:13:10
5131206 velcoinc.com 0 No Rank 2011-12-16 23:13:11
5131207 tomharned.com 0 No Rank 2011-12-16 23:13:11
5131208 payaway.co.uk 0 4462445 2011-12-16 23:13:13
5131209 jbrocketmusic.com 0 2343864 2011-12-16 23:13:14
5131210 veidcpas.com 0 No Rank 2011-12-16 23:13:14
5131211 adeuscrise.com 0 No Rank 2011-12-16 23:13:14
5131212 valuegirl.info 0 No Rank 2011-12-16 23:13:15
5131213 all2lift.co.uk 0 8378291 2011-12-16 23:13:16
5131214 ereksikuat.com 0 No Rank 2011-12-16 23:13:16
5131215 jobfitter.info 0 No Rank 2011-12-16 23:13:17
5131216 dormansmith.com 0 No Rank 2011-12-16 23:13:19
5131217 moar-butler.com 0 12755472 2011-12-16 23:13:21
5131218 letusletu.co.uk 0 4996406 2011-12-16 23:13:22
5131219 westlandsuk.com 0 4015609 2011-12-16 23:13:22
5131220 pioneerpaws.com 0 No Rank 2011-12-16 23:13:23
5131221 vegagroup.com 0 5495599 2011-12-16 23:13:26
5131222 pocketdoorhardwares.com 0 No Rank 2011-12-16 23:13:26
5131223 chattertons.com 0 1953348 2011-12-16 23:13:28
5131224 vegandiva.com 0 11403585 2011-12-16 23:13:28
5131225 ovenwizards.com 0 1566662 2011-12-16 23:13:28
5131226 pippirabbit.com 0 No Rank 2011-12-16 23:13:28
5131227 vedabhoomi.org 0 No Rank 2011-12-16 23:13:31
5131228 timeforyou.co.uk 0 311154 2011-12-16 23:13:32
5131229 leadnetprofi.com 0 No Rank 2011-12-16 23:13:34
5131230 vectormotions.com 0 10335813 2011-12-16 23:13:34
5131231 pest-force.co.uk 0 1219458 2011-12-16 23:13:35
5131232 mycyberdating.com 0 8256846 2011-12-16 23:13:37
5131233 shdcomposites.com 0 3931400 2011-12-16 23:13:38
5131234 blindfolded.co.uk 0 8164244 2011-12-16 23:13:41
5131235 benjaminrossi.net 0 No Rank 2011-12-16 23:13:42
5131236 employeesos.co.uk 0 5409353 2011-12-16 23:13:42
5131237 vav.sk 0 No Rank 2011-12-16 23:13:43
5131238 onedollardvds.com 0 No Rank 2011-12-16 23:13:43
5131239 larrycruz.info 0 No Rank 2011-12-16 23:13:43
5131240 vas.co.il 0 No Rank 2011-12-16 23:13:48
5131241 lspsskiphire.co.uk 0 2599055 2011-12-16 23:13:49
5131242 varumin.com.mk 0 28022276 2011-12-16 23:13:51
5131243 lindensecurity.com 0 7045334 2011-12-16 23:13:51
5131244 anapaulacuervo.com 0 No Rank 2011-12-16 23:13:52
5131245 sybergskaraoke.com 0 No Rank 2011-12-16 23:13:54
5131246 varnamonline.com 0 No Rank 2011-12-16 23:13:54
5131247 sherwoodglass.co.uk 0 No Rank 2011-12-16 23:13:55
5131248 controlgroup13.info 0 No Rank 2011-12-16 23:13:55
5131249 stefanscicluna.com 0 26488528 2011-12-16 23:13:55
5131250 muffinmousecafe.com 0 No Rank 2011-12-16 23:13:56
5131251 varium.com 0 20910510 2011-12-16 23:13:57
5131252 startachurchnow.com 0 No Rank 2011-12-16 23:13:58
5131253 smart-inventor.info 0 No Rank 2011-12-16 23:13:59
5131254 redroofclinic.co.uk 0 9874016 2011-12-16 23:14:00
5131255 vanstudios.com 0 No Rank 2011-12-16 23:14:04
5131256 cravens-funerals.com 0 6503158 2011-12-16 23:14:04
5131257 carolscurtains.co.uk 0 18017045 2011-12-16 23:14:05
5131258 vanettencompany.com 0 18704615 2011-12-16 23:14:05
5131259 pabtranslation.co.uk 0 2230269 2011-12-16 23:14:08
5131260 carpet-recycling.com 0 6708391 2011-12-16 23:14:11
5131261 contest-a-will.co.uk 0 5608067 2011-12-16 23:14:13
5131262 vanderloop.com 0 No Rank 2011-12-16 23:14:14
5131263 cooks-solicitors.org 0 No Rank 2011-12-16 23:14:15
5131264 arkebeker-zeltbau.de 0 No Rank 2011-12-16 23:14:15
5131265 vancouverrawfoodschool.com 0 No Rank 2011-12-16 23:14:17
5131266 lyontechnologies.com 0 No Rank 2011-12-16 23:14:18
5131267 energy2-bloglist.com 0 No Rank 2011-12-16 23:14:20
5131268 sekundengeschenke.at 0 No Rank 2011-12-16 23:14:21
5131269 vancouverluxuryhomes.com 0 25216569 2011-12-16 23:14:22
5131270 chimpmovies.com 0 981177 2011-12-16 23:14:23
5131271 morganexpress.com.mx 0 8873001 2011-12-16 23:14:23
5131272 hardingwebdesign.com 0 No Rank 2011-12-16 23:14:24
5131273 eurafricanbank-tz.com 0 2196556 2011-12-16 23:14:25
5131274 vanburenauto.com 0 No Rank 2011-12-16 23:14:26
5131275 vanbeers.nl 0 No Rank 2011-12-16 23:14:27
5131276 densitron-taiwan.com 0 No Rank 2011-12-16 23:14:28
5131277 valueheadsets.com 0 17608340 2011-12-16 23:14:30
5131278 vananabipour.com 0 No Rank 2011-12-16 23:14:32
5131279 valthorensapartment.eu 0 21928258 2011-12-16 23:14:34
5131280 karneval-plattform.de 0 No Rank 2011-12-16 23:14:38
5131281 valleygatevineyards.com 0 No Rank 2011-12-16 23:14:38
5131282 vallelongastructures.com 0 No Rank 2011-12-16 23:14:42
5131283 viraldecals.com 0 No Rank 2011-12-16 23:14:44
5131284 kingdomsecurity.co.uk 0 804369 2011-12-16 23:14:45
5131285 writing.insurance-co-policy.info 0 No Rank 2011-12-16 23:14:46
5131286 witzige-tierbilder.de 0 No Rank 2011-12-16 23:14:46
5131287 valiant-industries.com 0 8698508 2011-12-16 23:14:46
5131288 validassyatelje.se 0 No Rank 2011-12-16 23:14:47
5131289 maddocks-funerals.com 0 13066042 2011-12-16 23:14:48
5131290 thestonegallery.co.uk 0 6206325 2011-12-16 23:14:49
5131291 iwonasrecruitment.com 0 5696064 2011-12-16 23:14:50
5131292 breastformcompany.com 0 No Rank 2011-12-16 23:14:50
5131293 montrealmediation.com 0 No Rank 2011-12-16 23:14:51
5131294 valeriamazza.com.ar 0 24713222 2011-12-16 23:14:52
5131295 the-secret-change.com 0 15637162 2011-12-16 23:14:53
5131296 energie-der-sterne.de 0 1503148 2011-12-16 23:14:53
5131297 earthriverrecords.com 0 No Rank 2011-12-16 23:14:54
5131298 bcfermentersguild.com 0 25620091 2011-12-16 23:14:55
5131299 loverugbywellness.com 0 No Rank 2011-12-16 23:14:55
5131300 vakoveverky.cz 0 20877080 2011-12-16 23:14:58
5131301 oppenheim-derivate.de 0 No Rank 2011-12-16 23:15:00
5131302 vaivosgintaronamai.lt 0 No Rank 2011-12-16 23:15:01
5131303 leadbetter-murphy.com 0 14855961 2011-12-16 23:15:02
5131304 travertine-tile.co.uk 0 No Rank 2011-12-16 23:15:05
5131305 egorazzi.info 0 14398490 2011-12-16 23:15:05
5131306 vaginalweights.com 0 No Rank 2011-12-16 23:15:10
5131307 fashionstylebeauty.de 0 1963121 2011-12-16 23:15:14
5131308 vacavillecentrallittleleague.com 0 No Rank 2011-12-16 23:15:14
5131309 winzerhof-ebringen.de 0 5727214 2011-12-16 23:15:16
5131310 kcteachingfellows.org 0 No Rank 2011-12-16 23:15:17
5131311 tucholsky-blaetter.de 0 No Rank 2011-12-16 23:15:18
5131312 ridgelinetrailers.net 0 No Rank 2011-12-16 23:15:19
5131313 vabwc.com 0 No Rank 2011-12-16 23:15:19
5131314 vacationhomes-orlandofl.com 0 7700174 2011-12-16 23:15:20
5131315 vaasprofessionals.com 0 10012584 2011-12-16 23:15:21
5131316 v4lcustomers.com 0 No Rank 2011-12-16 23:15:23
5131317 zoologynehu.com 0 No Rank 2011-12-16 23:15:23
5131318 sicuro-dojo-berlin.de 0 No Rank 2011-12-16 23:15:24
5131319 fashionstyleyou.co.uk 0 759608 2011-12-16 23:15:24
5131320 delevendekerststal.nl 0 16770286 2011-12-16 23:15:25
5131321 kanzlei-lambsdorff.de 0 16139544 2011-12-16 23:15:27
5131322 ferienhof-eickhoff.de 0 No Rank 2011-12-16 23:15:29
5131323 uwflagler.org 0 No Rank 2011-12-16 23:15:30
5131324 volyn.translate-super.com 0 6022117 2011-12-16 23:15:30
5131325 uwbyleda.com 0 No Rank 2011-12-16 23:15:31
5131326 grohe-armaturen.de.cx 0 7249529 2011-12-16 23:15:31
5131327 haus-am-rosengarten.de 0 No Rank 2011-12-16 23:15:35
5131328 test.powersourcefireworks.com 0 8463643 2011-12-16 23:15:36
5131329 forexcontrolcenter.com 0 3865322 2011-12-16 23:15:38
5131330 turbine-efficiency.com 0 4930084 2011-12-16 23:15:38
5131331 american-divisions.com 0 17293638 2011-12-16 23:15:39
5131332 utahironmetal.com 0 No Rank 2011-12-16 23:15:39
5131333 utahenergymizer.com 0 No Rank 2011-12-16 23:15:42
5131334 jeugdbasketwevelgem.be 0 No Rank 2011-12-16 23:15:42
5131335 granthamcaravans.co.uk 0 1297510 2011-12-16 23:15:45
5131336 usyetzer.com 0 No Rank 2011-12-16 23:15:46
5131337 ledemergencylights.org 0 5975556 2011-12-16 23:15:47
5131338 caymbiyori.love-cc.com 0 No Rank 2011-12-16 23:15:48
5131339 usnationalcorp.com 0 No Rank 2011-12-16 23:15:50
5131340 mamamiez.wordpress.com 0 24256103 2011-12-16 23:15:50
5131341 uss-llc.com 0 No Rank 2011-12-16 23:15:50
5131342 ushahomoeopharmacy.com 0 No Rank 2011-12-16 23:15:54
5131343 ecommercesolutions.net 0 9926333 2011-12-16 23:15:56
5131344 usgasrewards.com 0 No Rank 2011-12-16 23:15:57
5131345 britmovietours.com 0 1247432 2011-12-16 23:15:57
5131346 hundetraining-gerke.de 0 23723871 2011-12-16 23:15:59
5131347 thewarillustrated.info 0 8733198 2011-12-16 23:16:00
5131348 cooks-solicitors.co.uk 0 4840118 2011-12-16 23:16:01
5131349 used-cars-joplin.com 0 14791321 2011-12-16 23:16:02
5131350 config.domainserver.de 0 5955240 2011-12-16 23:16:07
5131351 usatype.com 0 No Rank 2011-12-16 23:16:08
5131352 chicas.tienda5ases.com 0 No Rank 2011-12-16 23:16:09
5131353 sports4alg.blogspot.com 0 27615152 2011-12-16 23:16:10
5131354 usatkj.org 0 13864383 2011-12-16 23:16:11
5131355 usapolevaulting.org 0 11308152 2011-12-16 23:16:12
5131356 hotclubofnashville.com 0 No Rank 2011-12-16 23:16:16
5131357 vivekempowerment.com 0 15573717 2011-12-16 23:16:16
5131358 smithfieldautoloan.com 0 No Rank 2011-12-16 23:16:19
5131359 mountainskiphire.co.uk 0 5188896 2011-12-16 23:16:20
5131360 usamericanet.com 0 18566891 2011-12-16 23:16:21
5131361 bestattungen-hamann.de 0 No Rank 2011-12-16 23:16:22
5131362 usalbconsulting.com 0 No Rank 2011-12-16 23:16:23
5131363 theironhorsecorral.com 0 16152942 2011-12-16 23:16:24
5131364 thebulldogcard.com 0 No Rank 2011-12-16 23:16:26
5131365 fashionstylebeauty.com 0 447421 2011-12-16 23:16:27
5131366 internetgambling.uk.com 0 4357837 2011-12-16 23:16:33
5131367 lifestylegreenville.com 0 No Rank 2011-12-16 23:16:33
5131368 vitiligocauses.com 0 No Rank 2011-12-16 23:16:35
5131369 softwarepeer.com 0 2435711 2011-12-16 23:16:35
5131370 vitoravelino.com.br 0 No Rank 2011-12-16 23:16:36
5131371 southfljointsurgeon.com 0 No Rank 2011-12-16 23:16:36
5131372 usa-banks.us 0 1822068 2011-12-16 23:16:40
5131373 emmatownsendcakes.com.au 0 19650715 2011-12-16 23:16:40
5131374 beamends-lrspares.co.uk 0 10200383 2011-12-16 23:16:40
5131375 vitalhaus.sk 0 9119126 2011-12-16 23:16:41
5131376 louisiana.inetgiant.com 0 9578 2011-12-16 23:16:43
5131377 carnival2.bravehost.com 0 12430 2011-12-16 23:16:44
5131378 us-smallbiznet.com 0 14393051 2011-12-16 23:16:45
5131379 fullscaleexcavating.com 0 No Rank 2011-12-16 23:16:46
5131380 press.leamicheleweb.org 0 353237 2011-12-16 23:16:49
5131381 visitwithbv.com 0 No Rank 2011-12-16 23:16:50
5131382 uridotan.com 0 No Rank 2011-12-16 23:16:52
5131383 apprenticetothedawn.com 0 No Rank 2011-12-16 23:16:54
5131384 visitnordkapp.no 0 No Rank 2011-12-16 23:16:54
5131385 urgentdentalusa.com 0 No Rank 2011-12-16 23:17:02
5131386 visionsamerica.org 0 23283442 2011-12-16 23:17:04
5131387 pottercostume.net 0 No Rank 2011-12-16 23:17:06
5131388 harrishomeinteriors.com 0 19115466 2011-12-16 23:17:08
5131389 seattlepianoteacher.com 0 No Rank 2011-12-16 23:17:08
5131390 chicagovoiceanddata.com 0 No Rank 2011-12-16 23:17:10
5131391 workplaceresources.info 0 No Rank 2011-12-16 23:17:11
5131392 uretek.es 0 6412987 2011-12-16 23:17:12
5131393 mackinacislandfudge.com 0 11039378 2011-12-16 23:17:13
5131394 cassetteswontlisten.com 0 25020530 2011-12-16 23:17:15
5131395 writing.internet-marketing-explained.info 0 No Rank 2011-12-16 23:17:16
5131396 visionautic.org 0 No Rank 2011-12-16 23:17:16
5131397 thebusinesspromoter.com 0 1539381 2011-12-16 23:17:16
5131398 tirage-euromillions.net 0 96177 2011-12-16 23:17:20
5131399 hanguopaocaipeifang.com 0 No Rank 2011-12-16 23:17:22
5131400 ctgcoracaodovale.com.br 0 No Rank 2011-12-16 23:17:22
5131401 visagehairsalonanddayspa.com 0 No Rank 2011-12-16 23:17:23
5131402 virginia.sierraclub.org 0 47316 2011-12-16 23:17:24
5131403 visal.net 0 6745612 2011-12-16 23:17:25
5131404 virtuous-ae.com 0 No Rank 2011-12-16 23:17:26
5131405 sicherheitskaufhaus.net 0 515161 2011-12-16 23:17:28
5131406 british-holiday.info 0 7362610 2011-12-16 23:17:32
5131407 overheaddoorsystems.com 0 No Rank 2011-12-16 23:17:34
5131408 putthebootstohunger.com 0 No Rank 2011-12-16 23:17:35
5131409 topvueloseconomicos.com 0 No Rank 2011-12-16 23:17:36
5131410 viridiansupplychain.com 0 No Rank 2011-12-16 23:17:37
5131411 virtualizationmatrix.com 0 4008500 2011-12-16 23:17:38
5131412 protectainsurance.co.nz 0 25954146 2011-12-16 23:17:39
5131413 srimodularsolutions.com 0 No Rank 2011-12-16 23:17:41
5131414 virginiafirearmtraining.com 0 No Rank 2011-12-16 23:17:42
5131415 mountainstateslegal.org 0 16166116 2011-12-16 23:17:42
5131416 vintnerscircleeaston.com 0 No Rank 2011-12-16 23:17:52
5131417 bodensee-gaestehaus.com 0 No Rank 2011-12-16 23:17:53
5131418 vintendo.com 0 No Rank 2011-12-16 23:17:53
5131419 northern-electric.co.uk 0 No Rank 2011-12-16 23:17:54
5131420 orquestamarenostrum.com 0 No Rank 2011-12-16 23:17:56
5131421 antalyamietwagen.net 0 17343994 2011-12-16 23:17:57
5131422 vinny-sklep.cz 0 No Rank 2011-12-16 23:17:58
5131423 artynails.org 0 21083802 2011-12-16 23:17:58
5131424 vp15.com 0 4093633 2011-12-16 23:17:59
5131425 viniyogaarkansas.com 0 18899718 2011-12-16 23:18:00
5131426 amarillaspuertorico.com 0 1681224 2011-12-16 23:18:00
5131427 vincenthansen.com 0 No Rank 2011-12-16 23:18:01
5131428 chrysler-gs-daytona-shelby.avtosklad.net 0 1791254 2011-12-16 23:18:01
5131429 thestrangebrew.co.uk 0 7280483 2011-12-16 23:18:02
5131430 vincentengineering.com 0 No Rank 2011-12-16 23:18:04
5131431 buildgreenblueridge.com 0 No Rank 2011-12-16 23:18:05
5131432 digitaloutlookindia.com 0 No Rank 2011-12-16 23:18:06
5131433 formationlinelavoie.com 0 17400163 2011-12-16 23:18:11
5131434 visitbritainsuperblog.com 0 186319 2011-12-16 23:18:12
5131435 multifamilymillions.com 0 No Rank 2011-12-16 23:18:15
5131436 villasinamalfi.com 0 6340957 2011-12-16 23:18:16
5131437 villenavcd.com 0 No Rank 2011-12-16 23:18:16
5131438 bluewaterouterbanks.com 0 No Rank 2011-12-16 23:18:17
5131439 pharmacylinksonline.com 0 23027414 2011-12-16 23:18:18
5131440 magazine.hogarstyle.com 0 1962637 2011-12-16 23:18:20
5131441 joshuabuckley34311.webs.com 0 No Rank 2011-12-16 23:18:20
5131442 villaploom.se 0 No Rank 2011-12-16 23:18:21
5131443 villamadri.com 0 No Rank 2011-12-16 23:18:22
5131444 villalacasita.com 0 No Rank 2011-12-16 23:18:25
5131445 americanspiritgifts.com 0 No Rank 2011-12-16 23:18:25
5131446 andersongaragedoors.com 0 No Rank 2011-12-16 23:18:28
5131447 villagesquarebooks.com 0 7482035 2011-12-16 23:18:30
5131448 villagenurseries.com 0 3847671 2011-12-16 23:18:31
5131449 villa-neretva.com 0 No Rank 2011-12-16 23:18:33
5131450 villa-george.com 0 26227103 2011-12-16 23:18:33
5131451 wandsshop.com 0 12123321 2011-12-16 23:18:35
5131452 vilalexus.webubytovanie.sk 0 No Rank 2011-12-16 23:18:38
5131453 urbanartassociation.org 0 20105879 2011-12-16 23:18:38
5131454 firsttimebackpacker.com 0 27593155 2011-12-16 23:18:43
5131455 crazyredheadstudios.com 0 No Rank 2011-12-16 23:18:43
5131456 blog-gutscheine-oase.de 0 1379007 2011-12-16 23:18:45
5131457 apt2011.thep-center.org 0 No Rank 2011-12-16 23:18:45
5131458 backsideproductions.com 0 No Rank 2011-12-16 23:18:45
5131459 vidyakolyur.com 0 19960356 2011-12-16 23:18:48
5131460 kervenheimer-zeitung.de 0 18931704 2011-12-16 23:18:48
5131461 yamaguchishi-sweets.com 0 No Rank 2011-12-16 23:18:48
5131462 thinkdigitalmedia.co.uk 0 10966334 2011-12-16 23:18:51
5131463 videodepanare.eurnet.ro 0 4887173 2011-12-16 23:18:52
5131464 educatorsmoney.gwrs.com 0 88063 2011-12-16 23:18:53
5131465 freestyleworlds2006.com 0 24659435 2011-12-16 23:18:53
5131466 ecommerce-marketing.org 0 20396624 2011-12-16 23:18:54
5131467 millionaire-mentors.com 0 No Rank 2011-12-16 23:18:56
5131468 videomarketlaunch.com 0 No Rank 2011-12-16 23:18:56
5131469 videobusinesscoach.com 0 No Rank 2011-12-16 23:18:56
5131470 exacttransportation.com 0 No Rank 2011-12-16 23:18:56
5131471 jakubek.diecezja.gda.pl 0 661722 2011-12-16 23:18:58
5131472 victorygospel.com 0 No Rank 2011-12-16 23:18:59
5131473 deathlyhallowscostume.com 0 14492119 2011-12-16 23:19:02
5131474 victoria-bc-canada.com 0 No Rank 2011-12-16 23:19:03
5131475 victorgonzalezmd.com 0 No Rank 2011-12-16 23:19:03
5131476 basensaunaservice.ta.pl 0 493574 2011-12-16 23:19:04
5131477 churchinfeilding.org.nz 0 No Rank 2011-12-16 23:19:04
5131478 e-learning.daeng.web.id 0 4370408 2011-12-16 23:19:05
5131479 thebodyshapefitness.com 0 26696711 2011-12-16 23:19:07
5131480 exirsoft01.blogspot.com 0 No Rank 2011-12-16 23:19:08
5131481 vickihumphreytrainingcenter.com 0 No Rank 2011-12-16 23:19:10
5131482 mayorscuptournament.com 0 No Rank 2011-12-16 23:19:13
5131483 viamilitera.ru 0 5197687 2011-12-16 23:19:14
5131484 maisonsalobrena.cfun.fr 0 379367 2011-12-16 23:19:14
5131485 metrolinan.clickcom.com 0 268153 2011-12-16 23:19:16
5131486 bendaire-services.co.uk 0 No Rank 2011-12-16 23:19:17
5131487 veteroktur.ru 0 No Rank 2011-12-16 23:19:18
5131488 sivassempozyumu2011.com 0 No Rank 2011-12-16 23:19:21
5131489 private-landlords.co.uk 0 No Rank 2011-12-16 23:19:22
5131490 vertaalsoftware.com 0 No Rank 2011-12-16 23:19:23
5131491 chicagosportstravel.com 0 22221522 2011-12-16 23:19:26
5131492 driversargentina.com.ar 0 10730146 2011-12-16 23:19:26
5131493 vertexprojekti.lv 0 No Rank 2011-12-16 23:19:26
5131494 versi-tec.com 0 No Rank 2011-12-16 23:19:26
5131495 panarelloconsulting.com 0 No Rank 2011-12-16 23:19:29
5131496 versaiwinebar.com 0 No Rank 2011-12-16 23:19:31
5131497 jimhamilton.info 0 2218027 2011-12-16 23:19:32
5131498 danonethatsyogurt.co.il 0 18844841 2011-12-16 23:19:33
5131499 verschoor-oudshoorn.nl 0 No Rank 2011-12-16 23:19:33
5131500 haydenpanettiereweb.com 0 6382125 2011-12-16 23:19:33
5131501 quinlanridingclub.co.cc 0 No Rank 2011-12-16 23:19:34
5131502 veroreadinggarden.com 0 No Rank 2011-12-16 23:19:37
5131503 hosting.offershop.co.kr 0 No Rank 2011-12-16 23:19:38
5131504 franquicias.itos.com.mx 0 952021 2011-12-16 23:19:39
5131505 nightclubpromotions.net 0 No Rank 2011-12-16 23:19:40
5131506 1365car.enews.healthy-lifestyle-food.com 0 6167486 2011-12-16 23:19:40
5131507 verityessence.com 0 10416751 2011-12-16 23:19:41
5131508 verdapark.hu 0 No Rank 2011-12-16 23:19:43
5131509 verbakelschiedam.nl 0 No Rank 2011-12-16 23:19:46
5131510 recipe-robot.com 0 No Rank 2011-12-16 23:19:47
5131511 writing.internet-marketing-advice.info 0 No Rank 2011-12-16 23:19:47
5131512 tzhl.net 0 No Rank 2011-12-16 23:19:49
5131513 octavionorto614637.webs.com 0 No Rank 2011-12-16 23:19:51
5131514 thecorner.wordpress.com 0 5488336 2011-12-16 23:19:51
5131515 tyrpa.com 0 No Rank 2011-12-16 23:19:52
5131516 papafrancescospizza.com 0 10457463 2011-12-16 23:19:53
5131517 sheratonsantamonica.com 0 No Rank 2011-12-16 23:19:53
5131518 experimentoglobo.com.ar 0 No Rank 2011-12-16 23:19:53
5131519 tyrepressuregauge.com 0 No Rank 2011-12-16 23:19:54
5131520 neworleansfishhouse.com 0 126720 2011-12-16 23:19:56
5131521 sweetsentertainment.com 0 5870864 2011-12-16 23:19:57
5131522 tynkitermex.pl 0 No Rank 2011-12-16 23:19:57
5131523 tyeeclub.com 0 No Rank 2011-12-16 23:19:58
5131524 ketchikanhikingtour.com 0 No Rank 2011-12-16 23:19:59
5131525 smieszneprezenty.vcx.pl 0 1721730 2011-12-16 23:19:59
5131526 porfavorrestaurants.com 0 No Rank 2011-12-16 23:20:01
5131527 redseavillaholidays.com 0 No Rank 2011-12-16 23:20:03
5131528 inspiration4leaders.com 0 No Rank 2011-12-16 23:20:04
5131529 twocolorhat.com 0 No Rank 2011-12-16 23:20:08
5131530 datingsitestop10.nl 0 17326432 2011-12-16 23:20:09
5131531 minnade.jutakuhouti.com 0 No Rank 2011-12-16 23:20:10
5131532 messianicdevotional.com 0 No Rank 2011-12-16 23:20:11
5131533 foreveryoungrecords.com 0 23458345 2011-12-16 23:20:12
5131534 twojaczapka.pl 0 21295728 2011-12-16 23:20:13
5131535 wetzels-baumaschinen.de 0 No Rank 2011-12-16 23:20:15
5131536 easy-diet-solutions.com 0 14860518 2011-12-16 23:20:15
5131537 xn--wstenhagen-9db.info 0 No Rank 2011-12-16 23:20:16
5131538 ballonsport-brummann.de 0 No Rank 2011-12-16 23:20:17
5131539 twobitranchbandb.com 0 No Rank 2011-12-16 23:20:22
5131540 twistnshoutparties.com 0 5721575 2011-12-16 23:20:23
5131541 group.healthy-lifestyle-food.com 0 6167486 2011-12-16 23:20:24
5131542 twirljetspas.com 0 No Rank 2011-12-16 23:20:25
5131543 bowlertransmissions.com 0 3256152 2011-12-16 23:20:26
5131544 twinvee.com 0 5980486 2011-12-16 23:20:27
5131545 twincitieswinetasting.com 0 No Rank 2011-12-16 23:20:29
5131546 twincitiestaxicabs.com 0 No Rank 2011-12-16 23:20:31
5131547 nursinghomesupplies.net 0 No Rank 2011-12-16 23:20:31
5131548 group.cheapityou.com 0 16034920 2011-12-16 23:20:32
5131549 twikom.com 0 26956124 2011-12-16 23:20:33
5131550 mainstreetbookstore.com 0 20704531 2011-12-16 23:20:35
5131551 amazingfactshome.com 0 22462925 2011-12-16 23:20:36
5131552 antykoncepcja.anetta.pl 0 5004544 2011-12-16 23:20:43
5131553 podiatrycentersofnf.com 0 No Rank 2011-12-16 23:20:45
5131554 octavionorto614.insanejournal.com 0 6302 2011-12-16 23:20:47
5131555 store.africanapparels.com 0 4261847 2011-12-16 23:20:47
5131556 tweetpocket.com 0 12601811 2011-12-16 23:20:47
5131557 schreib-buerodienste.de 0 No Rank 2011-12-16 23:20:47
5131558 kuzovnye-zapchasti-nissan.avtosklad.net 0 1791254 2011-12-16 23:20:48
5131559 twcaviation.com 0 1151514 2011-12-16 23:20:54
5131560 aggravated.blogspot.com 0 14241429 2011-12-16 23:21:00
5131561 silkscarvesforwomen.net 0 No Rank 2011-12-16 23:21:01
5131562 tvojakarta.com 0 6977025 2011-12-16 23:21:02
5131563 aqualabtechnologies.com 0 118159 2011-12-16 23:21:05
5131564 goldenvalleybrewery.com 0 5287763 2011-12-16 23:21:05
5131565 freshvegetable.petit.cc 0 36871 2011-12-16 23:21:06
5131566 funniestofweb.com 0 No Rank 2011-12-16 23:21:07
5131567 oneplanetfoundation.org 0 No Rank 2011-12-16 23:21:08
5131568 seeyouinpacificasia.com 0 No Rank 2011-12-16 23:21:12
5131569 blog.timesharesbyowner.com 0 1923763 2011-12-16 23:21:13
5131570 artists-from-france.com 0 No Rank 2011-12-16 23:21:14
5131571 presbiterianatoronto.ca 0 No Rank 2011-12-16 23:21:15
5131572 tvillingeshoppen.dk 0 No Rank 2011-12-16 23:21:16
5131573 getthebestrighthere.com 0 17668436 2011-12-16 23:21:23
5131574 tux-onlineshop.de 0 12446022 2011-12-16 23:21:26
5131575 tolpuddlemartyrs.org.uk 0 6040785 2011-12-16 23:21:27
5131576 store.allcomputerresources.com 0 1888409 2011-12-16 23:21:29
5131577 tutorialpress.com 0 No Rank 2011-12-16 23:21:30
5131578 upstagedisplays.com 0 No Rank 2011-12-16 23:21:30
5131579 aaronsmachinescrews.com 0 18767897 2011-12-16 23:21:31
5131580 sampleswelldrilling.com 0 14847005 2011-12-16 23:21:33
5131581 ksmfreedomsolutions.com 0 No Rank 2011-12-16 23:21:37
5131582 store.airportcardsdirect.com 0 4115295 2011-12-16 23:21:38
5131583 upominki.wiedziec.pl 0 No Rank 2011-12-16 23:21:39
5131584 tuscandidatos.com 0 3902790 2011-12-16 23:21:44
5131585 joshuaratliff9.xanga.com 0 3428 2011-12-16 23:21:51
5131586 turtlecoveinn.com 0 3078654 2011-12-16 23:21:52
5131587 nottingham-antiques.com 0 16147856 2011-12-16 23:21:52
5131588 store.altnature.com 0 303499 2011-12-16 23:21:53
5131589 unusualliving.com 0 12480942 2011-12-16 23:21:55
5131590 departmentstorejobs.net 0 7197035 2011-12-16 23:21:55
5131591 englishdemocrats.org.uk 0 17037074 2011-12-16 23:21:58
5131592 store.armydecals.com 0 3757345 2011-12-16 23:22:04
5131593 korrektiruuschee-bele.ru 0 2562957 2011-12-16 23:22:08
5131594 centuriontechnology.com 0 13556129 2011-12-16 23:22:12
5131595 shouldigetakindleforcollege26.onsugar.com 0 No Rank 2011-12-16 23:22:13
5131596 investment.chinacbd.net 0 14541 2011-12-16 23:22:14
5131597 wabirds.freeservers.com 0 3425 2011-12-16 23:22:15
5131598 chestchiseler.com 0 2814689 2011-12-16 23:22:15
5131599 ridersenglish.edublogs.org 0 4276 2011-12-16 23:22:16
5131600 condoleezzapictures.com 0 No Rank 2011-12-16 23:22:18
5131601 store.barbaramcguire.com 0 19345037 2011-12-16 23:22:19
5131602 medicalsupplyleader.com 0 No Rank 2011-12-16 23:22:20
5131603 cheryljacobsdesigns.com 0 22470289 2011-12-16 23:22:23
5131604 yourdiamondearrings.com 0 10335437 2011-12-16 23:22:30
5131605 cereality.wordpress.com 0 24511245 2011-12-16 23:22:30
5131606 turn-sportbund-luebeck.de 0 10268337 2011-12-16 23:22:31
5131607 store.bestanimedvd.com 0 7112424 2011-12-16 23:22:32
5131608 forums.motet-records.de 0 No Rank 2011-12-16 23:22:33
5131609 bestkeywestcharters.com 0 No Rank 2011-12-16 23:22:33
5131610 unshelved.com 0 265884 2011-12-16 23:22:34
5131611 missoulafoodie.com 0 No Rank 2011-12-16 23:22:36
5131612 laura1318.wordpress.com 0 10951587 2011-12-16 23:22:38
5131613 recessionprosperity.com 0 No Rank 2011-12-16 23:22:39
5131614 caopan.heimaying.com.cn 0 3083639 2011-12-16 23:22:42
5131615 1001wonderfulthings.com 0 No Rank 2011-12-16 23:22:48
5131616 room109.lewesonline.com 0 3936257 2011-12-16 23:22:51
5131617 scrapbook-adhesives.com 0 4646518 2011-12-16 23:22:52
5131618 s90139951.onlinehome.us 0 7372967 2011-12-16 23:22:52
5131619 uniworldpublishing.com 0 No Rank 2011-12-16 23:22:56
5131620 room105.lewesonline.com 0 3936257 2011-12-16 23:22:59
5131621 bestnutritionistnyc.com 0 13838435 2011-12-16 23:23:02
5131622 albertabodybuilding.com 0 20538894 2011-12-16 23:23:03
5131623 northcuttproperties.com 0 No Rank 2011-12-16 23:23:04
5131624 universalhostelindore.com 0 No Rank 2011-12-16 23:23:06
5131625 universityadvancement.org 0 No Rank 2011-12-16 23:23:07
5131626 shubhweddingplanner.com 0 2114537 2011-12-16 23:23:09
5131627 store.bumpypitch.com 0 1454216 2011-12-16 23:23:09
5131628 derrenbrown.co.uk 0 93729 2011-12-16 23:23:10
5131629 carpigianipartstore.com 0 No Rank 2011-12-16 23:23:11
5131630 universaldsnr.com 0 No Rank 2011-12-16 23:23:11
5131631 ns404.abcname.net 0 No Rank 2011-12-16 23:23:13
5131632 marketingconsultancy.be 0 5848093 2011-12-16 23:23:16
5131633 univers-loisirs.com 0 6887133 2011-12-16 23:23:17
5131634 tunnelsuk.com 0 No Rank 2011-12-16 23:23:17
5131635 utahhairrestoration.com 0 No Rank 2011-12-16 23:23:19
5131636 unity-software.com 0 132592 2011-12-16 23:23:27
5131637 tunglinhonline.com 0 349679 2011-12-16 23:23:27
5131638 tulsabusinessbaskets.com 0 No Rank 2011-12-16 23:23:31
5131639 unitedminorities.net 0 No Rank 2011-12-16 23:23:33
5131640 unitedkingdomp.com 0 No Rank 2011-12-16 23:23:37
5131641 tukangsapu.web.id 0 1822472 2011-12-16 23:23:39
5131642 store.dapperdog.com 0 9437529 2011-12-16 23:23:40
5131643 tallerescardenas.com.ec 0 No Rank 2011-12-16 23:23:40
5131644 uniteddentalinsurance.com 0 14035192 2011-12-16 23:23:40
5131645 kindlebuy.info 0 6789814 2011-12-16 23:23:40
5131646 oneill-properties.co.uk 0 No Rank 2011-12-16 23:23:41
5131647 legacybuildersgroup.com 0 No Rank 2011-12-16 23:23:41
5131648 tuipl.com 0 9924347 2011-12-16 23:23:42
5131649 worcestershirenow.co.uk 0 No Rank 2011-12-16 23:23:43
5131650 tudesschoolofdance.com 0 No Rank 2011-12-16 23:23:47
5131651 uniquegifts247.com 0 12050360 2011-12-16 23:23:48
5131652 yeskarthi.wordpress.com 0 2616138 2011-12-16 23:23:48
5131653 yow.dreamstakeflight.ca 0 27687810 2011-12-16 23:23:49
5131654 jizhiunion.blogspot.com 0 No Rank 2011-12-16 23:23:51
5131655 unionresearchgroup.com 0 No Rank 2011-12-16 23:23:52
5131656 hotelreviewsireland.com 0 No Rank 2011-12-16 23:23:52
5131657 il-suck.thumblogger.com 0 4500 2011-12-16 23:23:53
5131658 hannaht18.edublogs.org 0 4276 2011-12-16 23:23:55
5131659 nissan-team-franken.org 0 No Rank 2011-12-16 23:23:56
5131660 greenfieldschool.com.tw 0 No Rank 2011-12-16 23:23:57
5131661 unimoghof.de 0 No Rank 2011-12-16 23:23:57
5131662 binformasi.blogspot.com 0 No Rank 2011-12-16 23:23:58
5131663 tublu.pl 0 1566585 2011-12-16 23:24:03
5131664 kingswaydermatology.com 0 13860667 2011-12-16 23:24:03
5131665 store.diyhut.com 0 5826420 2011-12-16 23:24:03
5131666 unifiedmission.com 0 No Rank 2011-12-16 23:24:04
5131667 virtualmarketingguy.com 0 No Rank 2011-12-16 23:24:10
5131668 stringbendercottage.com 0 No Rank 2011-12-16 23:24:11
5131669 highlightingwriting.com 0 No Rank 2011-12-16 23:24:14
5131670 tubacrentals.net 0 No Rank 2011-12-16 23:24:15
5131671 hot-serial.blogspot.com 0 24115172 2011-12-16 23:24:16
5131672 uniethos.tempsite.ws 0 25936 2011-12-16 23:24:18
5131673 stevenb-photography.com 0 No Rank 2011-12-16 23:24:22
5131674 alphapagingsoftware.com 0 14073429 2011-12-16 23:24:22
5131675 ttlcameraclub.com 0 No Rank 2011-12-16 23:24:23
5131676 firsteditionbookshops.co.uk 0 No Rank 2011-12-16 23:24:23
5131677 unfaded.net 0 No Rank 2011-12-16 23:24:24
5131678 anniesgloriousgowns.com 0 No Rank 2011-12-16 23:24:25
5131679 sepahanstoragegroup.com 0 No Rank 2011-12-16 23:24:25
5131680 ttf-riesa.de.vu 0 No Rank 2011-12-16 23:24:28
5131681 store.eosnewyork.com 0 1287559 2011-12-16 23:24:29
5131682 gasthof-schulmeister.de 0 No Rank 2011-12-16 23:24:32
5131683 videotogo.formovies.com 0 1004356 2011-12-16 23:24:33
5131684 undergroundbrown.com 0 No Rank 2011-12-16 23:24:35
5131685 undergroundfitnessclub.com 0 6886905 2011-12-16 23:24:36
5131686 tunersplace.com 0 606370 2011-12-16 23:24:36
5131687 ttcam.org 0 No Rank 2011-12-16 23:24:38
5131688 uncorkedwineevents.com 0 No Rank 2011-12-16 23:24:40
5131689 store.ezweightplatestore.com 0 7344358 2011-12-16 23:24:41
5131690 tstarreglo.com.mx 0 No Rank 2011-12-16 23:24:43
5131691 weststratfordsurvey.com 0 No Rank 2011-12-16 23:24:44
5131692 photoadslo.recycler.com 0 21321 2011-12-16 23:24:45
5131693 uncconnection.com 0 No Rank 2011-12-16 23:24:48
5131694 bullwinkle.toonzone.net 0 60170 2011-12-16 23:24:50
5131695 unbfm.com 0 No Rank 2011-12-16 23:24:52
5131696 tseint.com 0 20864419 2011-12-16 23:24:52
5131697 store.ginabshop.com 0 5158634 2011-12-16 23:24:53
5131698 shouldigetakindleoranookcolor27.wikispaces.com 0 1317 2011-12-16 23:24:54
5131699 unbeatenbyrain.com 0 No Rank 2011-12-16 23:24:55
5131700 86ylhm.com 0 No Rank 2011-12-16 23:24:56
5131701 fijiaaron.wordpress.com 0 2543451 2011-12-16 23:24:56
5131702 performancelogistix.com 0 No Rank 2011-12-16 23:24:58
5131703 celebritynewsandstyle.com 0 340060 2011-12-16 23:24:58
5131704 umsldining.com 0 No Rank 2011-12-16 23:25:01
5131705 bateriasportatil.com.es 0 25293598 2011-12-16 23:25:01
5131706 stationhousetheatre.com 0 9980860 2011-12-16 23:25:02
5131707 businessordertaking.com 0 22636686 2011-12-16 23:25:03
5131708 pedacitodelcielo.org.mx 0 12724226 2011-12-16 23:25:04
5131709 umncsa.com 0 No Rank 2011-12-16 23:25:08
5131710 rollcastproductions.com 0 23643130 2011-12-16 23:25:10
5131711 umklaw.co.nz 0 No Rank 2011-12-16 23:25:10
5131712 forums.polnisch-russische-hochzeitsband.de 0 21051840 2011-12-16 23:25:12
5131713 thephilipfoundation.org 0 No Rank 2011-12-16 23:25:12
5131714 dwatson.point2homes.biz 0 9922 2011-12-16 23:25:17
5131715 construction.kelcase.re 0 2192496 2011-12-16 23:25:20
5131716 socksharemovies.com 0 1024805 2011-12-16 23:25:20
5131717 trusthouse.co.nz 0 9885883 2011-12-16 23:25:22
5131718 igrejacristovive.com.br 0 969028 2011-12-16 23:25:24
5131719 diamondeventsonline.com 0 No Rank 2011-12-16 23:25:24
5131720 trumanrun.org 0 No Rank 2011-12-16 23:25:25
5131721 prestigedrycleaners.com 0 7839139 2011-12-16 23:25:28
5131722 umbrellaminds.com 0 No Rank 2011-12-16 23:25:30
5131723 store.fantasyworldjewelry.com 0 11320297 2011-12-16 23:25:31
5131724 truesoulrecords.com 0 No Rank 2011-12-16 23:25:31
5131725 winecapitalofcanada.com 0 25451450 2011-12-16 23:25:32
5131726 onlineinsurancesite.com 0 No Rank 2011-12-16 23:25:33
5131727 fundacioncaritas.org.ec 0 17920355 2011-12-16 23:25:34
5131728 truenorthstrategies.com 0 15258574 2011-12-16 23:25:35
5131729 shouldigetakindleoripad53.onsugar.com 0 No Rank 2011-12-16 23:25:37
5131730 bmi.eng.niigata-u.ac.jp 0 145213 2011-12-16 23:25:39
5131731 atlbusinessplanning.com 0 No Rank 2011-12-16 23:25:39
5131732 store.graniteearth.com 0 4845529 2011-12-16 23:25:40
5131733 ultramar.com.mx 0 No Rank 2011-12-16 23:25:41
5131734 truegrittraining.com 0 No Rank 2011-12-16 23:25:42
5131735 identitytheftnomore.com 0 No Rank 2011-12-16 23:25:42
5131736 truefoundation.com 0 11891033 2011-12-16 23:25:44
5131737 ultracleandetailing.com 0 No Rank 2011-12-16 23:25:44
5131738 trucktrackr.com 0 No Rank 2011-12-16 23:25:48
5131739 brovary.dveri-100.info 0 8808992 2011-12-16 23:25:48
5131740 educationtechpoints.org 0 No Rank 2011-12-16 23:25:50
5131741 store.globaltonic.com 0 5227702 2011-12-16 23:25:51
5131742 managediabetestoday.com 0 No Rank 2011-12-16 23:25:53
5131743 truckertalkwithbigjohn.com 0 No Rank 2011-12-16 23:25:54
5131744 reddirtconstruction.com 0 No Rank 2011-12-16 23:25:57
5131745 suoredoroteevicenza.org 0 No Rank 2011-12-16 23:25:59
5131746 trowbridgefurniture.com 0 No Rank 2011-12-16 23:25:59
5131747 store.mdtparts.com 0 No Rank 2011-12-16 23:26:01
5131748 meraserw.koscian.com.pl 0 No Rank 2011-12-16 23:26:01
5131749 mindinmotion-online.com 0 6932733 2011-12-16 23:26:01
5131750 woodhavencampground.com 0 17737583 2011-12-16 23:26:05
5131751 danielsdentalclinic.com 0 17521923 2011-12-16 23:26:05
5131752 aljardincantando.com.ar 0 10749370 2011-12-16 23:26:07
5131753 trout-fishers.net 0 No Rank 2011-12-16 23:26:08
5131754 jamesbarrettpilates.com 0 No Rank 2011-12-16 23:26:10
5131755 store.islandlavajavakona.net 0 6691097 2011-12-16 23:26:13
5131756 ukmas.com 0 6821772 2011-12-16 23:26:13
5131757 tropicars-golf.com 0 3746347 2011-12-16 23:26:14
5131758 rantonuk.org.uk 0 No Rank 2011-12-16 23:26:17
5131759 spb.dhd24.com 0 8118 2011-12-16 23:26:18
5131760 gateway-distriparks.com 0 5706694 2011-12-16 23:26:19
5131761 electrician.wyotech.edu 0 474431 2011-12-16 23:26:21
5131762 tropicalpoolsandspas.com 0 No Rank 2011-12-16 23:26:21
5131763 aandowindowcleaning.com 0 No Rank 2011-12-16 23:26:23
5131764 myrealtor.topcities.com 0 111754 2011-12-16 23:26:23
5131765 uhms.net 0 No Rank 2011-12-16 23:26:26
5131766 usedapart-kitahuchu.com 0 No Rank 2011-12-16 23:26:26
5131767 distinctive-machine.com 0 No Rank 2011-12-16 23:26:29
5131768 precisionroofinginc.com 0 No Rank 2011-12-16 23:26:33
5131769 tropicalfishmeds.com 0 No Rank 2011-12-16 23:26:34
5131770 argnur.webfactional.com 0 39667 2011-12-16 23:26:34
5131771 mcmillonengineering.com 0 No Rank 2011-12-16 23:26:36
5131772 sicherheitstraining.net 0 3349485 2011-12-16 23:26:38
5131773 ugurreklammarket.com.tr 0 No Rank 2011-12-16 23:26:38
5131774 uglyducklingpresse.org 0 3596354 2011-12-16 23:26:40
5131775 camouflagevinylwrap.com 0 No Rank 2011-12-16 23:26:41
5131776 ornamentalmouldings.com 0 8276428 2011-12-16 23:26:41
5131777 tropicalballroom.com 0 8538804 2011-12-16 23:26:44
5131778 sinefragman.net 0 16100693 2011-12-16 23:26:44
5131779 swmitchellcapital.co.uk 0 No Rank 2011-12-16 23:26:46
5131780 ugiaonline.org 0 No Rank 2011-12-16 23:26:46
5131781 gasfittersswansea.co.uk 0 No Rank 2011-12-16 23:26:47
5131782 ug-centr.ru 0 No Rank 2011-12-16 23:26:49
5131783 free-coupons-online.com 0 13380717 2011-12-16 23:26:50
5131784 thelivingroomstudio.com 0 No Rank 2011-12-16 23:26:51
5131785 ufowatch.com 0 9719716 2011-12-16 23:26:52
5131786 cubewebsolutions.com.au 0 No Rank 2011-12-16 23:26:52
5131787 pembury.freeserve.co.uk 0 56664 2011-12-16 23:26:53
5131788 studionotarilefarhat.it 0 No Rank 2011-12-16 23:26:54
5131789 my.educationamerica.net 0 214374 2011-12-16 23:26:54
5131790 mossroot.com 0 No Rank 2011-12-16 23:26:54
5131791 troop1283.org 0 No Rank 2011-12-16 23:26:56
5131792 treatments.us.com 0 No Rank 2011-12-16 23:27:03
5131793 uconnfootballtickets.org 0 No Rank 2011-12-16 23:27:04
5131794 bisonind.bizhosting.com 0 120686 2011-12-16 23:27:06
5131795 a1-wildlife-control.com 0 No Rank 2011-12-16 23:27:07
5131796 panasonic.ir 0 3993264 2011-12-16 23:27:07
5131797 dieelektronikerseite.de 0 1074485 2011-12-16 23:27:09
5131798 enable-consulting.co.jp 0 No Rank 2011-12-16 23:27:12
5131799 n30.directory.mocca.com 0 186944 2011-12-16 23:27:12
5131800 travelingnurseguide.com 0 934088 2011-12-16 23:27:12
5131801 spacesindoorsandout.com 0 No Rank 2011-12-16 23:27:13
5131802 ourworld.gamesgames.com 0 4250 2011-12-16 23:27:16
5131803 ucnoqta.com 0 No Rank 2011-12-16 23:27:17
5131804 competitionlawyer.co.uk 0 No Rank 2011-12-16 23:27:17
5131805 beamteninformationen.de 0 No Rank 2011-12-16 23:27:18
5131806 trolllanding.com 0 No Rank 2011-12-16 23:27:18
5131807 barbaraschwaier.ifunnyblog.com 0 438732 2011-12-16 23:27:19
5131808 fishingheadquarters.net 0 3382417 2011-12-16 23:27:19
5131809 ucfarena.com 0 1256250 2011-12-16 23:27:20
5131810 woodseats.brother.co.uk 0 150445 2011-12-16 23:27:20
5131811 room128.lewesonline.com 0 3936257 2011-12-16 23:27:22
5131812 creightoncoaching.co.uk 0 No Rank 2011-12-16 23:27:24
5131813 ucc-12.com 0 No Rank 2011-12-16 23:27:24
5131814 egy-mobile.blogspot.com 0 7271701 2011-12-16 23:27:25
5131815 trixoo.com 0 1070780 2011-12-16 23:27:27
5131816 go-travel-solutions.com 0 3106250 2011-12-16 23:27:27
5131817 ubuntu.sange.fi 0 966759 2011-12-16 23:27:27
5131818 parmaleephotography.com 0 No Rank 2011-12-16 23:27:28
5131819 store.oobees.com 0 6561648 2011-12-16 23:27:28
5131820 writing.internet-marketing-agency.info 0 No Rank 2011-12-16 23:27:31
5131821 triviumconstruction.com 0 No Rank 2011-12-16 23:27:31
5131822 hawthornemanagement.net 0 No Rank 2011-12-16 23:27:32
5131823 eastcoastcomposites.com 0 No Rank 2011-12-16 23:27:32
5131824 fasten-wander-verein.de 0 No Rank 2011-12-16 23:27:33
5131825 intifada-des-perles.org 0 No Rank 2011-12-16 23:27:34
5131826 tritechsales.net 0 No Rank 2011-12-16 23:27:35
5131827 eastleigh.brother.co.uk 0 150445 2011-12-16 23:27:37
5131828 ubercow.net 0 No Rank 2011-12-16 23:27:38
5131829 cure-it.info 0 No Rank 2011-12-16 23:27:38
5131830 sydneyseoexperts.com.au 0 4712896 2011-12-16 23:27:38
5131831 outlet-feedback.gap.com 0 494 2011-12-16 23:27:40
5131832 solarcom-consulting.com 0 No Rank 2011-12-16 23:27:41
5131833 uaps.com 0 6678412 2011-12-16 23:27:41
5131834 tritanproducts.com 0 No Rank 2011-12-16 23:27:42
5131835 store.mydesignerbrands.com 0 681744 2011-12-16 23:27:43
5131836 michaelnorthrop.net 0 5248242 2011-12-16 23:27:43
5131837 theimmpression.cusjc.ca 0 15857540 2011-12-16 23:27:43
5131838 straalbedrijfwierden.nl 0 No Rank 2011-12-16 23:27:44
5131839 tristatesupply.com 0 No Rank 2011-12-16 23:27:47
5131840 lcd-plazma-televize.com 0 9847468 2011-12-16 23:27:50
5131841 tristatelaundry.com 0 No Rank 2011-12-16 23:27:52
5131842 persian.koneko-neko.net 0 20122240 2011-12-16 23:27:52
5131843 store.overheaddoorparts.com 0 8495743 2011-12-16 23:27:56
5131844 defrost-indicator.co.uk 0 No Rank 2011-12-16 23:27:59
5131845 seamanhr.com 0 No Rank 2011-12-16 23:27:59
5131846 triqualitypainting.com 0 No Rank 2011-12-16 23:28:00
5131847 youghalcharterboats.com 0 No Rank 2011-12-16 23:28:00
5131848 pacific-up-industry.com 0 No Rank 2011-12-16 23:28:04
5131849 hospiceofcharleston.com 0 No Rank 2011-12-16 23:28:05
5131850 trippes.com 0 22691184 2011-12-16 23:28:06
5131851 store.quickfixplumbingproducts.com 0 14035359 2011-12-16 23:28:09
5131852 kingshakaaviation.co.za 0 No Rank 2011-12-16 23:28:09
5131853 trionfhl.com 0 No Rank 2011-12-16 23:28:11
5131854 streamstars.in 0 2422951 2011-12-16 23:28:14
5131855 wynprostechnologies.com 0 No Rank 2011-12-16 23:28:14
5131856 arbitrarycollection.com 0 17832408 2011-12-16 23:28:14
5131857 trinityse.com 0 No Rank 2011-12-16 23:28:15
5131858 trinityrealty.net 0 No Rank 2011-12-16 23:28:15
5131859 micha.nextlevelhost.com 0 No Rank 2011-12-16 23:28:16
5131860 trinityla.org 0 No Rank 2011-12-16 23:28:17
5131861 acura-vigor.avtosklad.net 0 1791254 2011-12-16 23:28:18
5131862 trinitykaukauna.com 0 No Rank 2011-12-16 23:28:21
5131863 bayerischer-musikrat.de 0 No Rank 2011-12-16 23:28:22
5131864 trinityfinancialgroup.org 0 No Rank 2011-12-16 23:28:25
5131865 lewisdrug.formovies.com 0 1004356 2011-12-16 23:28:26
5131866 2020healthsolutions.com 0 No Rank 2011-12-16 23:28:27
5131867 trimbolichiro.net 0 No Rank 2011-12-16 23:28:28
5131868 autoescuelaeltorico.com 0 No Rank 2011-12-16 23:28:31
5131869 channelislands.mwrc.net 0 185558 2011-12-16 23:28:31
5131870 kelontongsudimampir.com 0 10225566 2011-12-16 23:28:33
5131871 store.qginc.com 0 6724095 2011-12-16 23:28:34
5131872 enfieldcommunityfcu.org 0 No Rank 2011-12-16 23:28:34
5131873 casablanca-amsterdam.nl 0 5343710 2011-12-16 23:28:35
5131874 trimarsh.com 0 No Rank 2011-12-16 23:28:35
5131875 calgaryfirefighters.com 0 No Rank 2011-12-16 23:28:37
5131876 triciaezell.com 0 No Rank 2011-12-16 23:28:40
5131877 thelchaimfoundation.org 0 No Rank 2011-12-16 23:28:40
5131878 blog.handicap-dating.no 0 No Rank 2011-12-16 23:28:41
5131879 dolmetscher-service.net 0 No Rank 2011-12-16 23:28:42
5131880 trianglemanagement.net 0 No Rank 2011-12-16 23:28:42
5131881 enseignessherbrooke.com 0 11692477 2011-12-16 23:28:43
5131882 nuvi2360lmt750.tumblr.com 0 No Rank 2011-12-16 23:28:44
5131883 suhutogel.wordpress.com 0 10393434 2011-12-16 23:28:45
5131884 tri-countycomplex.ca 0 No Rank 2011-12-16 23:28:46
5131885 trendatweet.com 0 No Rank 2011-12-16 23:28:46
5131886 internationalpcclub.com 0 No Rank 2011-12-16 23:28:47
5131887 monaleenpetcarevets.com 0 No Rank 2011-12-16 23:28:47
5131888 store.shecoolhecool.com 0 No Rank 2011-12-16 23:28:48
5131889 treehuggerboxes.com 0 9350350 2011-12-16 23:28:50
5131890 treasuredbirthday.com 0 9354549 2011-12-16 23:28:54
5131891 treatingchickenpox.com 0 No Rank 2011-12-16 23:28:57
5131892 store.sevensaturdays.com 0 19356718 2011-12-16 23:28:58
5131893 venicevillasflorida.com 0 No Rank 2011-12-16 23:28:59
5131894 registrar.humberc.on.ca 0 1623362 2011-12-16 23:28:59
5131895 moviegoersclub.com 0 3829126 2011-12-16 23:28:59
5131896 multimediainteriors.com 0 No Rank 2011-12-16 23:29:03
5131897 reading-berkshire.co.uk 0 8715274 2011-12-16 23:29:04
5131898 travel-trend.net 0 4502932 2011-12-16 23:29:05
5131899 conceptualmathmedia.com 0 23683077 2011-12-16 23:29:05
5131900 slogan-competitions.com 0 No Rank 2011-12-16 23:29:06
5131901 travel-vienna.net 0 No Rank 2011-12-16 23:29:06
5131902 fletcherhoteleerbeek.nl 0 2682911 2011-12-16 23:29:07
5131903 defendersproprights.org 0 No Rank 2011-12-16 23:29:09
5131904 dontkillyourpatient.com 0 No Rank 2011-12-16 23:29:10
5131905 maybelline.sakura.ne.jp 0 394 2011-12-16 23:29:11
5131906 store.shoppingforbigfoot.com 0 11630567 2011-12-16 23:29:12
5131907 travel-spokane.com 0 22883970 2011-12-16 23:29:13
5131908 fivecitieslawcenter.com 0 No Rank 2011-12-16 23:29:14
5131909 marleneweinsteinart.com 0 No Rank 2011-12-16 23:29:16
5131910 shouldigetakindlewith3g67.onsugar.com 0 No Rank 2011-12-16 23:29:17
5131911 lowerbeedinglions.co.uk 0 No Rank 2011-12-16 23:29:17
5131912 transportestumbes.gob.pe 0 No Rank 2011-12-16 23:29:18
5131913 freefranchisebook.co.uk 0 25625792 2011-12-16 23:29:20
5131914 mattjensenmarketing.com 0 No Rank 2011-12-16 23:29:21
5131915 trantergreymedia.com 0 No Rank 2011-12-16 23:29:24
5131916 cahyoandika.blogspot.com 0 No Rank 2011-12-16 23:29:24
5131917 store.spraymallstore.com 0 2331845 2011-12-16 23:29:25
5131918 bullochtaxassessors.org 0 18905950 2011-12-16 23:29:26
5131919 transfermyukpension.co.nz 0 9130758 2011-12-16 23:29:27
5131920 transoceaninternational.com 0 No Rank 2011-12-16 23:29:27
5131921 transafetyinc.com 0 No Rank 2011-12-16 23:29:29
5131922 greencrosscommunity.com 0 No Rank 2011-12-16 23:29:29
5131923 creativeslumpnomore.com 0 No Rank 2011-12-16 23:29:30
5131924 crescentsilversands.com 0 8936921 2011-12-16 23:29:30
5131925 career-inspirations.com 0 21529351 2011-12-16 23:29:31
5131926 trainersinmotion.co.nz 0 28025572 2011-12-16 23:29:34
5131927 store.southwestindiantreasures.com 0 No Rank 2011-12-16 23:29:34
5131928 spooksbooks.com 0 3737622 2011-12-16 23:29:34
5131929 tradicioncatolica.net 0 3212287 2011-12-16 23:29:35
5131930 pinacotecadivarallo.com 0 No Rank 2011-12-16 23:29:36
5131931 tradewindsmechanicallv.com 0 No Rank 2011-12-16 23:29:36
5131932 traderbytes.com 0 4986487 2011-12-16 23:29:40
5131933 directory.jarabiza.blogspot.com.pk 0 18816397 2011-12-16 23:29:42
5131934 customtrains-canada.com 0 17297124 2011-12-16 23:29:42
5131935 interns.sarahbarlow.com 0 8541697 2011-12-16 23:29:42
5131936 vincentsurgicalarts.com 0 6029500 2011-12-16 23:29:43
5131937 situationsproblemes.com 0 4030189 2011-12-16 23:29:44
5131938 clinique-lhermitage.com 0 22534732 2011-12-16 23:29:46
5131939 foro.robertoestrada.com 0 10607631 2011-12-16 23:29:47
5131940 gidrouzel.omskportal.ru 0 521148 2011-12-16 23:29:48
5131941 tracksandparts.com 0 14888794 2011-12-16 23:29:48
5131942 badgleymischkashoes.com 0 23262105 2011-12-16 23:29:50
5131943 historical-lighting.org 0 8985619 2011-12-16 23:29:51
5131944 trackmotorsports.com 0 No Rank 2011-12-16 23:29:53
5131945 twinlakesgolfresort.com 0 10916281 2011-12-16 23:29:54
5131946 free-guitar-chords.info 0 No Rank 2011-12-16 23:29:54
5131947 elledub08.wordpress.com 0 12870897 2011-12-16 23:29:56
5131948 store.thekayostore.com 0 2707825 2011-12-16 23:29:56
5131949 lookingbackmagazine.com 0 4583971 2011-12-16 23:29:58
5131950 dolphindispensers.co.uk 0 6015892 2011-12-16 23:29:58
5131951 traciandmatt.com 0 No Rank 2011-12-16 23:29:59
5131952 bewerbungen-coaching.de 0 13573046 2011-12-16 23:30:00
5131953 flohmarkt-goettingen.de 0 No Rank 2011-12-16 23:30:01
5131954 naturalhabitatdomes.com 0 No Rank 2011-12-16 23:30:04
5131955 cleancitieswinnipeg.org 0 23682514 2011-12-16 23:30:04
5131956 der-medieningenieur.net 0 No Rank 2011-12-16 23:30:10
5131957 toyotadealership.org 0 No Rank 2011-12-16 23:30:10
5131958 california-mattress.com 0 No Rank 2011-12-16 23:30:11
5131959 windridgepublishing.com 0 No Rank 2011-12-16 23:30:13
5131960 birkbeckstratford.ac.uk 0 No Rank 2011-12-16 23:30:14
5131961 blackfridayads2011.info 0 2056611 2011-12-16 23:30:15
5131962 town.bentley.ab.ca 0 No Rank 2011-12-16 23:30:22
5131963 aclockworkreduction.com 0 No Rank 2011-12-16 23:30:30
5131964 tristianotwest.blog.ca 0 22898 2011-12-16 23:30:35
5131965 bamper-kharkov.bamper.org 0 4644687 2011-12-16 23:30:46
5131966 shouldigetakindleyahoo50.wikispaces.com 0 1317 2011-12-16 23:30:52
5131967 onthecan.com 0 8274152 2011-12-16 23:31:05
5131968 2008eawm.com 0 5549204 2011-12-16 23:31:08
5131969 towellshowpigs.com 0 No Rank 2011-12-16 23:31:12
5131970 srsbiz-in.the-circ.us 0 No Rank 2011-12-16 23:31:31
5131971 flamingohouse.net 0 8927609 2011-12-16 23:32:21
5131972 greaterscrantonymca.com 0 No Rank 2011-12-16 23:32:25
5131973 totowagaragedoor.com 0 No Rank 2011-12-16 23:32:29
5131974 kennedy-syndrom-nord.de 0 No Rank 2011-12-16 23:32:29
5131975 totalcaretoday.com 0 No Rank 2011-12-16 23:32:35
5131976 tostibiscotti.com 0 No Rank 2011-12-16 23:32:38
5131977 computacionintegral.com 0 No Rank 2011-12-16 23:32:40
5131978 hangingrockmotel.com.au 0 No Rank 2011-12-16 23:32:40
5131979 sabinefiebig.girlshopes.com 0 454694 2011-12-16 23:32:44
5131980 toshibapc.sk 0 2817482 2011-12-16 23:32:46
5131981 store.sundownertractor.com 0 5588323 2011-12-16 23:32:46
5131982 gobeliner.skolemedia.dk 0 No Rank 2011-12-16 23:32:47
5131983 torzasgolf.com 0 No Rank 2011-12-16 23:32:52
5131984 groups.dhd24.com 0 8118 2011-12-16 23:32:52
5131985 temara-informatique.com 0 No Rank 2011-12-16 23:32:56
5131986 gardenstatedoorsinc.com 0 No Rank 2011-12-16 23:32:58
5131987 tortugasrestaurant.com 0 No Rank 2011-12-16 23:32:58
5131988 gideonhastingshouse.com 0 22941657 2011-12-16 23:32:59
5131989 torrencecollection.com 0 No Rank 2011-12-16 23:33:00
5131990 store.thewildbee.com 0 6507137 2011-12-16 23:33:01
5131991 totallysanitized.biz 0 No Rank 2011-12-16 23:33:02
5131992 torrancesubway.com 0 No Rank 2011-12-16 23:33:02
5131993 broadripplelightsup.com 0 7513500 2011-12-16 23:33:03
5131994 headstartbirmingham.com 0 No Rank 2011-12-16 23:33:04
5131995 troutgulchvineyards.com 0 No Rank 2011-12-16 23:33:07
5131996 xxcrossxx.s167.xrea.com 0 1920 2011-12-16 23:33:08
5131997 store.wastewatersupplies.com 0 No Rank 2011-12-16 23:33:09
5131998 luxury-villa-cyprus.com 0 No Rank 2011-12-16 23:33:10
5131999 hunde-spielzeug-holz.de 0 No Rank 2011-12-16 23:33:12